Redding, CA

11:29 PM PST on November 14, 2019 (GMT -0800)
Redding Municipal

Weather History for KRDD - September, 2019

Change the Weather History Date:

Wednesday, September 18, 2019

  Actual Average Record
Temperature  
Mean Temperature 63 °F -  
Max Temperature 71 °F 90 °F 105 °F (1984)
Min Temperature 54 °F 57 °F 48 °F (1986)
Degree Days  
Heating Degree Days 2    
Cooling Degree Days 0    
Growing Degree Days 14 (Base 50)    
Moisture  
Dew Point 54 °F    
Average Humidity 71    
Maximum Humidity 93    
Minimum Humidity 49    
Precipitation  
Precipitation 0.11 in 0.02 in 0.80 in (1989)
Month to date precipitation 0.24 0.34  
Year to date precipitation 32.51 21.47  
Sea Level Pressure  
Sea Level Pressure 29.88 in    
Wind  
Wind Speed 6 mph (South)    
Max Wind Speed 17 mph    
Max Gust Speed 21 mph    
Visibility 10 miles    
Events Rain , Thunderstorm    
T = Trace of Precipitation, MM = Missing Value Source: NWS Daily Summary

Daily Weather History Graph

Daily Weather History Graph

Search for Another Location

Airport or City:

Astronomy

Sep. 18, 2019 Rise Set
Actual Time 6:52 AM PDT 7:13 PM PDT
Civil Twilight 6:25 AM PDT 7:40 PM PDT
Nautical Twilight 5:53 AM PDT 8:12 PM PDT
Astronomical Twilight 5:20 AM PDT 8:45 PM PDT
Moon 9:49 PM PDT (9/18) 11:02 AM PDT (9/18)
Length of Visible Light 13h 15m
Length of Day
12h 20m
Waning Gibbous, 82% of the Moon is Illuminated
Sep 18
Waning Gibbous
Sep 21
Last Quarter
Sep 28
New
Oct 5
First Quarter
Oct 13
Full

Hourly Weather History & Observations

Time (PDT) Temp. Dew Point Humidity Pressure Visibility Wind Dir Wind Speed Gust Speed Precip Events Conditions
12:53 AM 69.1 °F 48.0 °F 47% 29.84 in 9.0 mi WSW 5.8 mph - 0.01 in Rain Light Rain
1:53 AM 62.1 °F 57.0 °F 84% 29.87 in 10.0 mi North 6.9 mph - 0.06 in   Overcast
2:53 AM 61.0 °F 57.0 °F 87% 29.87 in 10.0 mi East 5.8 mph - 0.00 in Rain Light Rain
3:53 AM 59.0 °F 55.9 °F 90% 29.86 in 10.0 mi NE 4.6 mph - 0.01 in   Mostly Cloudy
4:53 AM 59.0 °F 55.9 °F 90% 29.86 in 10.0 mi Calm Calm - N/A   Overcast
5:53 AM 59.0 °F 57.0 °F 93% 29.86 in 10.0 mi Calm Calm - N/A   Mostly Cloudy
6:53 AM 60.1 °F 54.0 °F 80% 29.88 in 10.0 mi SSW 6.9 mph - N/A   Mostly Cloudy
7:25 AM 60.1 °F 55.0 °F 83% 29.90 in 10.0 mi Calm Calm - N/A   Mostly Cloudy
7:53 AM 60.1 °F 55.0 °F 83% 29.89 in 10.0 mi WSW 3.5 mph - N/A   Mostly Cloudy
8:53 AM 62.1 °F 57.0 °F 84% 29.89 in 10.0 mi SSE 9.2 mph - N/A   Mostly Cloudy
9:53 AM 63.0 °F 57.0 °F 81% 29.91 in 10.0 mi South 10.4 mph - N/A   Overcast
10:53 AM 66.0 °F 55.0 °F 68% 29.90 in 10.0 mi SSW 9.2 mph - N/A   Mostly Cloudy
11:00 AM 66.0 °F 54.0 °F 65% 29.91 in 10.0 mi South 8.1 mph - N/A   Mostly Cloudy
11:53 AM 68.0 °F 53.1 °F 59% 29.89 in 10.0 mi Variable 5.8 mph - N/A   Mostly Cloudy
12:53 PM 70.0 °F 51.1 °F 51% 29.88 in 10.0 mi South 8.1 mph - N/A   Overcast
1:53 PM 68.0 °F 54.0 °F 61% 29.87 in 10.0 mi South 10.4 mph - 0.00 in Thunderstorm Scattered Clouds
2:51 PM 68.0 °F 50.0 °F 52% 29.87 in 10.0 mi South 13.8 mph - N/A   Mostly Cloudy
2:53 PM 68.0 °F 50.0 °F 52% 29.86 in 10.0 mi South 11.5 mph - N/A   Mostly Cloudy
3:53 PM 70.0 °F 51.1 °F 51% 29.87 in 10.0 mi SSW 5.8 mph - N/A   Mostly Cloudy
4:53 PM 71.1 °F 52.0 °F 51% 29.86 in 10.0 mi WSW 4.6 mph - N/A   Scattered Clouds
5:53 PM 68.0 °F 53.1 °F 59% 29.88 in 10.0 mi South 11.5 mph - 0.00 in   Mostly Cloudy
6:53 PM 64.0 °F 53.1 °F 67% 29.89 in 10.0 mi SE 11.5 mph - N/A   Overcast
7:53 PM 62.1 °F 55.9 °F 80% 29.90 in 8.0 mi Calm Calm - 0.04 in Rain Light Rain
8:53 PM 60.1 °F 55.9 °F 86% 29.90 in 10.0 mi NNW 4.6 mph - 0.00 in   Partly Cloudy
9:53 PM 59.0 °F 55.0 °F 87% 29.91 in 10.0 mi Calm Calm - N/A   Clear
10:53 PM 57.0 °F 54.0 °F 89% 29.92 in 10.0 mi Calm Calm - N/A   Clear